Terminal Aerodrome Forecast
Issued by NWS Wilmington, OH

Current Version | Previous Version | Graphics & Text | Print | Product List | Glossary On
Versions: 1 2 3 4 5 6 7 8 9 10 11 12 13 14 15 16 17 18 19 20 21 22 23 24 25 26 27 28 29 30 31 32
000
FTUS41 KILN 291100 RRA
TAFILN
TAF
KILN 291143Z 2912/3012 17014KT P6SM BKN080 OVC120
      TEMPO 2912/2914 5SM -SHRA
     FM291700 22016G26KT P6SM VCSH BKN018 OVC120
     FM292100 26017G27KT P6SM OVC009
     FM300100 29015G23KT P6SM OVC012
     FM301000 31012G20KT P6SM OVC022=

USA.gov is the U.S. government's official web portal to all federal, state and local government web resources and services.